Location: Auckland
(36.8670°S, 174.7670°E)
Time: 21:39:16
(UTC+12:00)

Courier 1B - All Passes

Search period start: 24 July 2019 00:00
Search period end: 03 August 2019 00:00
Orbit: 962 x 1209 km, 28.3° (Epoch: 23 July)

Date Brightness Start Highest point End Pass type
(mag) Time Alt. Az. Time Alt. Az. Time Alt. Az.
24 Jul - 00:32:51 10° NW 00:35:13 12° NNW 00:37:37 10° N night (unlit)
24 Jul - 16:04:53 10° N 16:08:06 14° NNE 16:11:19 10° ENE daylight
24 Jul - 17:55:38 10° NW 18:01:14 31° NNE 18:06:59 10° ENE visible
24 Jul - 19:48:36 10° WNW 19:54:42 41° N 20:01:04 10° ENE visible
24 Jul - 21:42:21 10° WNW 21:48:13 32° NNW 21:54:23 10° NE visible
24 Jul - 23:37:43 10° WNW 23:41:35 15° NNW 23:45:35 10° N night (unlit)
25 Jul - 15:14:13 10° NNE 15:14:36 10° NNE 15:14:59 10° NNE daylight
25 Jul - 17:02:25 10° NW 17:07:42 27° NNE 17:13:03 10° ENE daylight
25 Jul - 18:55:04 10° WNW 19:01:04 40° N 19:07:16 10° ENE visible
25 Jul - 20:48:39 10° WNW 20:54:35 35° N 21:00:48 10° NE visible
25 Jul - 22:43:19 10° WNW 22:47:59 19° NNW 22:52:48 10° NNE night (unlit)
26 Jul - 16:09:20 10° NNW 16:14:10 22° NNE 16:19:00 10° ENE daylight
26 Jul - 18:01:34 10° WNW 18:07:28 37° N 18:13:29 10° ENE visible
26 Jul - 19:54:58 10° WNW 20:00:58 38° N 20:07:09 10° ENE visible
26 Jul - 21:49:14 10° WNW 21:54:22 23° NNW 21:59:42 10° NNE visible
27 Jul - 15:16:28 10° NNW 15:20:39 18° NNE 15:24:47 10° ENE daylight
27 Jul - 17:08:07 10° NW 17:13:54 34° N 17:19:42 10° ENE daylight
27 Jul - 19:01:21 10° WNW 19:07:21 39° N 19:13:30 10° ENE visible
27 Jul - 20:55:20 10° WNW 21:00:47 27° NNW 21:06:25 10° NE visible
27 Jul - 22:52:02 10° NW 22:54:02 11° NNW 22:56:03 10° N night (unlit)
28 Jul - 14:24:02 10° N 14:27:08 14° NNE 14:30:12 10° NE daylight
28 Jul - 16:14:44 10° NW 16:20:19 30° NNE 16:25:53 10° ENE daylight
28 Jul - 18:07:45 10° WNW 18:13:44 40° N 18:19:49 10° ENE visible
28 Jul - 20:01:33 10° WNW 20:07:11 31° NNW 20:13:01 10° NE visible
28 Jul - 21:56:52 10° WNW 22:00:28 15° NNW 22:04:08 10° N visible
29 Jul - 15:21:26 10° NW 15:26:46 26° NNE 15:32:01 10° ENE daylight
29 Jul - 17:14:09 10° WNW 17:20:08 39° N 17:26:08 10° ENE daylight
29 Jul - 19:07:48 10° WNW 19:13:36 35° N 19:19:31 10° NE visible
29 Jul - 21:02:29 10° WNW 21:06:54 19° NNW 21:11:26 10° NNE visible
30 Jul - 14:28:17 10° NNW 14:33:13 22° NNE 14:38:02 10° ENE daylight
30 Jul - 16:20:35 10° WNW 16:26:33 37° N 16:32:26 10° ENE daylight
30 Jul - 18:14:05 10° WNW 18:20:01 38° N 18:25:59 10° ENE visible
30 Jul - 20:08:24 10° WNW 20:13:21 23° NNW 20:18:25 10° NNE visible
31 Jul - 13:35:20 10° NNW 13:39:40 18° NNE 13:43:53 10° ENE daylight
31 Jul - 15:27:03 10° NW 15:32:58 34° N 15:38:44 10° ENE daylight
31 Jul - 17:20:23 10° WNW 17:26:25 39° N 17:32:25 10° ENE daylight
31 Jul - 19:14:27 10° WNW 19:19:48 27° NNW 19:25:14 10° NE visible
31 Jul - 21:11:14 10° NW 21:12:59 11° NNW 21:14:44 10° NNW visible
01 Aug - 12:42:47 10° N 12:46:05 14° NNE 12:49:20 10° NE daylight
01 Aug - 14:33:35 10° NW 14:39:23 30° NNE 14:44:59 10° ENE daylight
01 Aug - 16:26:42 10° WNW 16:32:50 40° N 16:38:49 10° ENE daylight
01 Aug - 18:20:36 10° WNW 18:26:15 31° NNW 18:31:54 10° NE visible
01 Aug - 20:15:59 10° WNW 20:19:27 15° NNW 20:22:58 10° N visible
02 Aug - 11:51:43 10° NNE 11:52:31 10° NNE 11:53:19 10° NE daylight
02 Aug - 13:40:11 10° NW 13:45:46 26° NNE 13:51:10 10° ENE daylight
02 Aug - 15:33:00 10° WNW 15:39:13 39° N 15:45:13 10° ENE daylight
02 Aug - 17:26:47 10° WNW 17:32:41 35° N 17:38:30 10° NE daylight
02 Aug - 19:21:33 10° WNW 19:25:56 19° NNW 19:30:21 10° NNE visible
